Location: *
(17.3280°S, 114.7300°W)
Time: 13:38:59
(UTC+00:00)

Hubble Space Telescope - Pass Details

Date: 02 November 2020
Orbit: 536 x 540 km, 28.5° (Epoch: 29 November)

Event Time Altitude Azimuth Distance (km) Brightness Sun altitude
Exits shadow 11:04:34 33° 61° (ENE) 925 2.2 -26.4°
Drops below altitude 10° 11:06:54 10° 63° (ENE) 1,788 3.8 -25.9°
Sets 11:09:10 0° 64° (ENE) 2,676 4.8 -25.5°
